User: anonymous   Login
Location: Street
(51.1247°N, 2.7429°W)
Time: 13:28:19
(UTC+01:00)
Language:

CUTE 1.7 + AOD 2 - Orbit

View from above orbital plane
View from above orbital plane
View from above satellite
View from above satellite

Ground track
Ground track

The orbit data is extracted from the following two-line orbital elements,

1 32785U 08021C   24110.17027057  .00010182  00000-0  91526-3 0  9991
2 32785  97.7490  76.0470 0012096 154.7453 205.4362 14.95808202866724
Epoch (UTC): 19 April 2024 04:05:11
Eccentricity: 0.0012096
inclination: 97.7490°
perigee height: 571 km
apogee height: 588 km
right ascension of ascending node: 76.0470°
argument of perigee: 154.7453°
revolutions per day: 14.95808202
mean anomaly at epoch: 205.4362°
orbit number at epoch: 86672

The dashed part of the orbit path shows where the satellite is in the earth's shadow,  

DLR